Location: Peterborough
(44.3091°N, 78.3197°W)
Time: 18:03:11
(UTC-04:00)

Explorer 11/Cluster Stage 4 - Pass Details

Date: 29 March 2023
Orbit: 466 x 1237 km, 28.8° (Epoch: 05 June)

Event Time Altitude Azimuth Distance (km) Brightness Sun altitude
Rises 08:24:57 0° 231° (SW) 2,697 9.0 14.3°
Reaches altitude 10° 08:28:31 10° 197° (SSW) 1,950 8.6 14.9°
Maximum altitude 08:30:07 12° 177° (S) 1,911 8.8 15.2°
Drops below altitude 10° 08:31:48 10° 156° (SSE) 2,100 9.4 15.5°
Sets 08:36:06 0° 126° (SE) 3,239 11.0 16.2°
